Location: Township of Marena
(38.1747°N, 99.6798°W)
Time: 02:19:52
(UTC+00:00)

Delta 2 Rocket - Pass Details

Date: 26 October 2020
Orbit: 415 x 806 km, 35.6° (Epoch: 27 November)

Event Time Altitude Azimuth Distance (km) Brightness Sun altitude
Rises 00:17:26 0° 267° (W) 3,028 9.5 -6.7°
Reaches altitude 10° 00:19:44 10° 264° (W) 2,170 8.1 -7.1°
Maximum altitude 00:24:51 68° 183° (S) 813 4.2 -8.1°
Drops below altitude 10° 00:30:26 10° 101° (ESE) 2,351 5.9 -9.2°
Enters shadow 00:30:32 10° 101° (E) 2,389 6.0 -9.2°
